• In Deutschland
  • Länderverzeichnis
  • Für 7 Tage
  • Wassertemperatur
  • Satellitenkarten
  • Wetterkarte
  • Widgets
  • user-avatar
    Anmelden

    Stündliche Wetter Butiá

    Heute, 25 November, Samstag

    Zeit Temperatur Niederschläge Wind Luftdruck Luftfeuchtigkeit
    00:00 +16°C° 0 mm 2 m/S 756 mmHg 76%
    01:00 +16°C° 0 mm 2 m/S 756 mmHg 77%
    02:00 +16°C° 0 mm 2 m/S 756 mmHg 78%
    03:00 +16°C° 0 mm 2 m/S 756 mmHg 80%
    04:00 +16°C° 0 mm 2 m/S 756 mmHg 79%
    05:00 +16°C° 0 mm 2 m/S 756 mmHg 79%
    06:00 +16°C° 0 mm 2 m/S 756 mmHg 79%
    07:00 +18°C° 0,1 mm 3 m/S 756 mmHg 76%
    08:00 +19°C° 0,1 mm 3 m/S 756 mmHg 72%
    09:00 +21°C° 0,1 mm 3 m/S 756 mmHg 69%
    10:00 +21°C° 0,3 mm 3 m/S 756 mmHg 71%
    11:00 +21°C° 0,3 mm 4 m/S 756 mmHg 72%
    12:00 +22°C° 0,3 mm 4 m/S 756 mmHg 74%
    13:00 +22°C° 0,4 mm 3 m/S 755 mmHg 76%
    14:00 +21°C° 0,4 mm 3 m/S 755 mmHg 79%
    15:00 +21°C° 0,4 mm 3 m/S 755 mmHg 81%
    16:00 +20°C° 1,3 mm 3 m/S 755 mmHg 86%
    17:00 +19°C° 1,3 mm 3 m/S 754 mmHg 90%
    18:00 +19°C° 1,3 mm 3 m/S 754 mmHg 94%
    19:00 +18°C° 0,4 mm 3 m/S 754 mmHg 95%
    20:00 +18°C° 0,4 mm 3 m/S 754 mmHg 95%
    21:00 +18°C° 0,4 mm 3 m/S 754 mmHg 96%
    22:00 +18°C° 0,6 mm 3 m/S 754 mmHg 96%
    23:00 +18°C° 0,6 mm 3 m/S 754 mmHg 96%

    Morgen, 26 November, Sonntag

    Zeit Temperatur Niederschläge Wind Luftdruck Luftfeuchtigkeit
    00:00 +18°C° 0,6 mm 3 m/S 754 mmHg 96%
    01:00 +18°C° 0,5 mm 3 m/S 753 mmHg 97%
    02:00 +19°C° 0,5 mm 3 m/S 752 mmHg 97%
    03:00 +19°C° 0,5 mm 2 m/S 751 mmHg 97%
    04:00 +19°C° 0,1 mm 2 m/S 751 mmHg 97%
    05:00 +19°C° 0,1 mm 2 m/S 751 mmHg 97%
    06:00 +19°C° 0,1 mm 2 m/S 751 mmHg 97%
    07:00 +20°C° 0,1 mm 3 m/S 751 mmHg 94%
    08:00 +21°C° 0,1 mm 3 m/S 751 mmHg 91%
    09:00 +22°C° 0,1 mm 3 m/S 752 mmHg 88%
    10:00 +22°C° 0,4 mm 3 m/S 751 mmHg 86%
    11:00 +24°C° 0,4 mm 3 m/S 751 mmHg 85%
    12:00 +24°C° 0,4 mm 2 m/S 751 mmHg 83%
    13:00 +25°C° 0,3 mm 3 m/S 751 mmHg 79%
    14:00 +26°C° 0,3 mm 3 m/S 751 mmHg 75%
    15:00 +26°C° 0,3 mm 3 m/S 750 mmHg 70%
    16:00 +26°C° 0,1 mm 3 m/S 750 mmHg 73%
    17:00 +25°C° 0,1 mm 3 m/S 750 mmHg 75%
    18:00 +25°C° 0,1 mm 2 m/S 750 mmHg 77%
    19:00 +23°C° 0 mm 2 m/S 750 mmHg 82%
    20:00 +21°C° 0 mm 2 m/S 751 mmHg 88%
    21:00 +19°C° 0 mm 2 m/S 751 mmHg 94%
    22:00 +19°C° 0 mm 1 m/S 751 mmHg 95%
    23:00 +19°C° 0 mm 1 m/S 751 mmHg 96%

    übermorgen, 27 November, Montag

    Zeit Temperatur Niederschläge Wind Luftdruck Luftfeuchtigkeit
    00:00 +18°C° 0 mm 1 m/S 751 mmHg 98%
    01:00 +18°C° 0 mm 1 m/S 751 mmHg 98%
    02:00 +18°C° 0 mm 1 m/S 751 mmHg 98%
    03:00 +18°C° 0 mm 1 m/S 751 mmHg 98%
    04:00 +16°C° 0 mm 0 m/S 751 mmHg 98%
    05:00 +16°C° 0 mm 0 m/S 751 mmHg 97%
    06:00 +16°C° 0 mm 0 m/S 752 mmHg 97%
    07:00 +18°C° 0 mm 0 m/S 752 mmHg 89%
    08:00 +21°C° 0 mm 0 m/S 753 mmHg 80%
    09:00 +23°C° 0 mm 0 m/S 753 mmHg 72%
    10:00 +25°C° 0 mm 0 m/S 753 mmHg 65%
    11:00 +29°C° 0 mm 1 m/S 753 mmHg 58%
    12:00 +30°C° 0 mm 1 m/S 753 mmHg 51%
    13:00 +30°C° 0 mm 1 m/S 753 mmHg 50%
    14:00 +30°C° 0 mm 1 m/S 753 mmHg 49%
    15:00 +30°C° 0 mm 2 m/S 752 mmHg 49%
    16:00 +28°C° 0,1 mm 2 m/S 753 mmHg 55%
    17:00 +27°C° 0,1 mm 2 m/S 753 mmHg 61%
    18:00 +26°C° 0,1 mm 2 m/S 753 mmHg 68%
    19:00 +25°C° 0 mm 2 m/S 754 mmHg 73%
    20:00 +23°C° 0 mm 2 m/S 755 mmHg 78%
    21:00 +21°C° 0 mm 3 m/S 756 mmHg 83%
    22:00 +20°C° 0 mm 3 m/S 756 mmHg 84%
    23:00 +19°C° 0 mm 3 m/S 757 mmHg 85%

    28 November, Dienstag

    Zeit Temperatur Niederschläge Wind Luftdruck Luftfeuchtigkeit
    00:00 +19°C° 0 mm 3 m/S 757 mmHg 85%
    01:00 +18°C° 0 mm 3 m/S 757 mmHg 85%
    02:00 +18°C° 0 mm 3 m/S 757 mmHg 84%
    03:00 +18°C° 0 mm 3 m/S 757 mmHg 83%
    04:00 +17°C° 0 mm 2 m/S 757 mmHg 83%
    05:00 +17°C° 0 mm 2 m/S 758 mmHg 82%
    06:00 +17°C° 0 mm 2 m/S 758 mmHg 81%
    07:00 +18°C° 0 mm 2 m/S 758 mmHg 77%
    08:00 +18°C° 0 mm 2 m/S 759 mmHg 73%
    09:00 +19°C° 0 mm 2 m/S 759 mmHg 69%
    10:00 +20°C° 0 mm 2 m/S 759 mmHg 68%
    11:00 +20°C° 0 mm 2 m/S 759 mmHg 66%
    12:00 +21°C° 0 mm 2 m/S 759 mmHg 64%
    13:00 +21°C° 0 mm 2 m/S 759 mmHg 63%
    14:00 +21°C° 0 mm 3 m/S 758 mmHg 63%
    15:00 +21°C° 0 mm 3 m/S 758 mmHg 63%
    16:00 +21°C° 0 mm 3 m/S 758 mmHg 64%
    17:00 +20°C° 0 mm 3 m/S 758 mmHg 64%
    18:00 +19°C° 0 mm 3 m/S 757 mmHg 65%
    19:00 +18°C° 0 mm 3 m/S 758 mmHg 69%
    20:00 +16°C° 0 mm 3 m/S 758 mmHg 72%
    21:00 +15°C° 0 mm 2 m/S 758 mmHg 76%
    22:00 +14°C° 0 mm 2 m/S 758 mmHg 78%
    23:00 +14°C° 0 mm 2 m/S 758 mmHg 80%

    29 November, Mittwoch

    Zeit Temperatur Niederschläge Wind Luftdruck Luftfeuchtigkeit
    00:00 +13°C° 0 mm 1 m/S 758 mmHg 83%
    01:00 +12°C° 0 mm 1 m/S 758 mmHg 85%
    02:00 +12°C° 0 mm 1 m/S 757 mmHg 87%
    03:00 +12°C° 0 mm 1 m/S 757 mmHg 89%
    04:00 +12°C° 0 mm 1 m/S 757 mmHg 89%
    05:00 +12°C° 0 mm 1 m/S 757 mmHg 88%
    06:00 +12°C° 0 mm 1 m/S 757 mmHg 88%
    07:00 +15°C° 0 mm 1 m/S 757 mmHg 79%
    08:00 +17°C° 0 mm 2 m/S 757 mmHg 69%
    09:00 +20°C° 0 mm 3 m/S 757 mmHg 60%
    10:00 +21°C° 0 mm 3 m/S 756 mmHg 56%
    11:00 +24°C° 0 mm 3 m/S 756 mmHg 51%
    12:00 +25°C° 0 mm 3 m/S 755 mmHg 47%
    13:00 +25°C° 0 mm 3 m/S 755 mmHg 47%
    14:00 +26°C° 0 mm 3 m/S 755 mmHg 47%
    15:00 +26°C° 0 mm 3 m/S 754 mmHg 47%
    16:00 +23°C° 0 mm 4 m/S 754 mmHg 52%
    17:00 +22°C° 0 mm 4 m/S 754 mmHg 58%
    18:00 +21°C° 0 mm 4 m/S 754 mmHg 63%
    19:00 +19°C° 0 mm 4 m/S 754 mmHg 68%
    20:00 +17°C° 0 mm 3 m/S 754 mmHg 72%
    21:00 +16°C° 0 mm 3 m/S 755 mmHg 77%
    22:00 +15°C° 0 mm 2 m/S 755 mmHg 80%
    23:00 +15°C° 0 mm 2 m/S 755 mmHg 83%

    30 November, Donnerstag

    Zeit Temperatur Niederschläge Wind Luftdruck Luftfeuchtigkeit
    00:00 +14°C° 0 mm 2 m/S 754 mmHg 87%
    01:00 +14°C° 0 mm 2 m/S 754 mmHg 89%
    02:00 +13°C° 0 mm 1 m/S 754 mmHg 91%
    03:00 +13°C° 0 mm 1 m/S 754 mmHg 92%
    04:00 +13°C° 0 mm 1 m/S 754 mmHg 92%
    05:00 +13°C° 0 mm 1 m/S 754 mmHg 92%
    06:00 +14°C° 0 mm 2 m/S 755 mmHg 92%
    07:00 +16°C° 0 mm 2 m/S 755 mmHg 82%
    08:00 +18°C° 0 mm 3 m/S 755 mmHg 71%
    09:00 +21°C° 0 mm 3 m/S 755 mmHg 61%
    10:00 +22°C° 0 mm 3 m/S 754 mmHg 57%
    11:00 +24°C° 0 mm 3 m/S 754 mmHg 53%
    12:00 +26°C° 0 mm 3 m/S 754 mmHg 49%
    13:00 +26°C° 0 mm 4 m/S 753 mmHg 48%
    14:00 +26°C° 0 mm 4 m/S 753 mmHg 48%
    15:00 +27°C° 0 mm 4 m/S 752 mmHg 47%
    16:00 +25°C° 0 mm 4 m/S 753 mmHg 52%
    17:00 +23°C° 0 mm 4 m/S 753 mmHg 57%
    18:00 +22°C° 0 mm 4 m/S 753 mmHg 61%
    19:00 +20°C° 0 mm 4 m/S 753 mmHg 66%
    20:00 +19°C° 0 mm 4 m/S 754 mmHg 71%
    21:00 +17°C° 0 mm 3 m/S 754 mmHg 76%
    22:00 +17°C° 0 mm 3 m/S 754 mmHg 79%
    23:00 +16°C° 0 mm 3 m/S 754 mmHg 81%
    Mehr zeigen